Overview Statistics Trail Chart Weather Telemetry Raw packets
 

This is the latest recevied weather packets stored in our database for station/object KB4MLW-13. If no packets are shown the sender has not sent any weather packets the latest 10 day(s).

<< 103 104 105 106 107 108 109 >>
Time Temp. Humidity Pressure Rain* Wind** Luminosity Snow
1788204089 33.33° C 59% 1002.1 hPa 0 mm - - -
1788204028 32.78° C 60% 1001.8 hPa 0 mm - - -
1788203973 32.78° C 59% 1002 hPa 0 mm - - -
1788203908 32.78° C 59% 1002.1 hPa 0 mm - - -
1788203848 32.78° C 58% 1002.2 hPa 0 mm - - -
1788203788 32.78° C 60% 1002.1 hPa 0 mm - - -
1788203699 32.78° C 61% 1002.2 hPa 0 mm - - -
1788203638 32.78° C 61% 1002.2 hPa 0 mm - - -
1788203578 33.33° C 62% 1002.1 hPa 0 mm - - -
1788203518 33.33° C 57% 1002.1 hPa 0 mm - - -
1788203429 33.33° C 60% 1002 hPa 0 mm - - -
1788203368 33.33° C 58% 1002.1 hPa 0 mm - - -
1788203308 33.89° C 58% 1002 hPa 0 mm - - -
1788203249 33.89° C 57% 1002.1 hPa 0 mm - - -
1788203188 33.89° C 59% 1002.2 hPa 0 mm - - -
1788203128 33.89° C 57% 1002.1 hPa 0 mm - - -
1788203068 33.89° C 60% 1002.1 hPa 0 mm - - -
1788203008 33.89° C 58% 1002.2 hPa 0 mm - - -
1788202919 33.89° C 59% 1002.4 hPa 0 mm - - -
1788202858 33.89° C 58% 1002.2 hPa 0 mm - - -
1788202798 33.89° C 60% 1002.2 hPa 0 mm - - -
1788202738 33.33° C 62% 1002 hPa 0 mm - - -
1788202649 33.33° C 62% 1002.2 hPa 0 mm - - -
1788202588 33.33° C 61% 1002.2 hPa 0 mm - - -
1788202528 33.33° C 59% 1002.3 hPa 0 mm - - -

* Rain latest hour (hover to see other rain measurements)
** Current wind speed in m/s (hover to see current wind gust speed)